San Sebastian, Spain

9:19 PM CEST on April 25, 2017 (GMT +0200)
San Sebastian

Weather History for LESO - August, 2013

Change the Weather History Date:

Sunday, August 4, 2013

  Actual Average Record
Temperature  
Mean Temperature 72 °F -  
Max Temperature 77 °F 75 °F 104 °F (2003)
Min Temperature 66 °F 62 °F 59 °F (1998)
Cooling Degree Days 6    
Growing Degree Days 22 (Base 50)    
Moisture  
Dew Point 63 °F    
Average Humidity 72    
Maximum Humidity 88    
Minimum Humidity 57    
Precipitation  
Precipitation 0.00 in - - ()
Sea Level Pressure  
Sea Level Pressure 30.14 in    
Wind  
Wind Speed 4 mph ()    
Max Wind Speed 8 mph    
Max Gust Speed -    
Visibility 6.2 miles    
Events      
Averages and records for this station are not official NWS values.
T = Trace of Precipitation, MM = Missing Value Source: Averaged Metar Reports

Daily Weather History Graph

Daily Weather History Graph

Search for Another Location

Airport or City:

Trip Planner

Search our weather history database for the weather conditions in past years. The results will help you decide how hot, cold, wet, or windy it might be!

Date:

Astronomy

Aug. 04, 2013 Rise Set
Actual Time 7:00 AM CEST 9:25 PM CEST
Civil Twilight 6:28 AM CEST 9:57 PM CEST
Nautical Twilight 5:48 AM CEST 10:37 PM CEST
Astronomical Twilight 5:03 AM CEST 11:21 PM CEST
Moon 4:47 AM CEST (8/4) 7:39 PM CEST (8/4)
Length of Visible Light 15h 29m
Length of Day
14h 25m
Waning Crescent, 6% of the Moon is Illuminated
Aug 4
Waning Crescent
Aug 6
New
Aug 14
First Quarter
Aug 21
Full
Aug 28
Last Quarter

Hourly Weather History & Observations

Time (CEST) Temp. Dew Point Humidity Pressure Visibility Wind Dir Wind Speed Gust Speed Precip Events Conditions
5:30 AM 68.0 °F 64.4 °F 88% 30.18 in 6.2 mi SW 4.6 mph - N/A   Mostly Cloudy
6:00 AM 68.0 °F 62.6 °F 83% 30.18 in 6.2 mi SW 3.5 mph - N/A   Mostly Cloudy
6:30 AM 68.0 °F 62.6 °F 83% 30.18 in 6.2 mi SSW 3.5 mph - N/A   Mostly Cloudy
7:00 AM 68.0 °F 64.4 °F 88% 30.18 in 6.2 mi SSW 4.6 mph - N/A   Overcast
7:30 AM 66.2 °F 62.6 °F 88% 30.18 in 6.2 mi SSW 4.6 mph - N/A   Overcast
8:00 AM 68.0 °F 62.6 °F 83% 30.18 in 6.2 mi SSW 5.8 mph - N/A   Overcast
8:30 AM 68.0 °F 62.6 °F 83% 30.18 in 6.2 mi SSW 5.8 mph - N/A   Overcast
9:00 AM 68.0 °F 62.6 °F 83% 30.18 in 6.2 mi SW 6.9 mph - N/A   Overcast
9:30 AM 68.0 °F 64.4 °F 88% 30.18 in 6.2 mi SW 6.9 mph - N/A   Overcast
10:00 AM 68.0 °F 64.4 °F 88% 30.18 in 6.2 mi SSW 6.9 mph - N/A   Overcast
10:30 AM 69.8 °F 64.4 °F 83% 30.18 in 6.2 mi SW 4.6 mph - N/A   Overcast
11:00 AM 69.8 °F 64.4 °F 83% 30.18 in 6.2 mi SW 3.5 mph - N/A   Overcast
11:30 AM 73.4 °F 62.6 °F 69% 30.18 in 6.2 mi Variable 1.2 mph - N/A   Overcast
12:00 PM 75.2 °F 62.6 °F 65% 30.18 in 6.2 mi Variable 1.2 mph - N/A   Mostly Cloudy
12:30 PM 75.2 °F 62.6 °F 65% 30.18 in 6.2 mi Variable 1.2 mph - N/A   Scattered Clouds
1:00 PM 75.2 °F 62.6 °F 65% 30.15 in 6.2 mi North 4.6 mph - N/A   Scattered Clouds
1:30 PM 73.4 °F 64.4 °F 73% 30.15 in 6.2 mi North 5.8 mph - N/A   Mostly Cloudy
2:00 PM 73.4 °F 62.6 °F 69% 30.15 in 6.2 mi NNW 8.1 mph - N/A   Mostly Cloudy
2:30 PM 75.2 °F 64.4 °F 69% 30.15 in 6.2 mi Variable 4.6 mph - N/A   Scattered Clouds
3:00 PM 77.0 °F 64.4 °F 65% 30.15 in 6.2 mi Variable 3.5 mph - N/A   Scattered Clouds
3:30 PM 77.0 °F 62.6 °F 61% 30.12 in 6.2 mi NNW 3.5 mph - N/A   Scattered Clouds
4:00 PM 77.0 °F 60.8 °F 57% 30.12 in 6.2 mi North 6.9 mph - N/A   Partly Cloudy
4:30 PM 77.0 °F 60.8 °F 57% 30.12 in 6.2 mi North 5.8 mph - N/A   Partly Cloudy
5:00 PM 75.2 °F 62.6 °F 65% 30.09 in 6.2 mi North 4.6 mph - N/A   Partly Cloudy
5:30 PM 77.0 °F 62.6 °F 61% 30.09 in 6.2 mi North 5.8 mph - N/A   Partly Cloudy
6:00 PM 77.0 °F 62.6 °F 61% 30.09 in 6.2 mi North 5.8 mph - N/A   Partly Cloudy
6:30 PM 77.0 °F 62.6 °F 61% 30.09 in - NNE 6.9 mph - N/A   Clear
7:00 PM 75.2 °F 62.6 °F 65% 30.06 in - North 5.8 mph - N/A   Clear
7:30 PM 75.2 °F 62.6 °F 65% 30.06 in - NNE 6.9 mph - N/A   Clear
8:00 PM 75.2 °F 60.8 °F 61% 30.06 in - NNE 6.9 mph - N/A   Clear
8:30 PM 75.2 °F 60.8 °F 61% 30.06 in - NNE 6.9 mph - N/A   Clear
9:00 PM 73.4 °F 62.6 °F 69% 30.06 in - NNE 5.8 mph - N/A   Clear
9:30 PM 73.4 °F 64.4 °F 73% 30.06 in - NNE 4.6 mph - N/A   Clear